Theta_e
317 321 324 323 322 323 321 318 319 322 322 324 331 333 327 322 323 324 323 318 312 314 320 318 315 316 314 313 313 312 314 315 315 315 312 310 309 309 309 309 308 307 306 304 303 304 305 305 305 307 308 309 309 310 310 310 308 310 312 314 314 316 318 318 319 320 321 321 320 321 321 321 323 324 324 325 326 325 325 324 323 323 324 324 323 323
317 321 323 320 319 321 321 319 321 320 322 327 326 323 324 323 325 323 318 317 314 315 321 320 316 317 314 313 312 310 313 314 313 314 313 312 310 309 310 309 309 308 306 305 304 303 303 304 305 305 307 308 309 310 310 309 309 310 312 313 314 316 317 318 318 319 320 321 321 321 321 322 323 322 322 323 323 323 323 323 323 322 323 323 322 322
321 323 321 316 316 319 319 318 320 320 323 330 325 319 323 324 322 319 315 315 314 314 322 324 318 316 314 313 313 312 312 312 312 312 313 313 312 311 310 310 309 308 308 307 305 302 302 303 304 304 306 307 309 310 309 309 309 310 311 313 313 315 316 317 318 319 319 320 321 321 321 321 322 321 321 322 322 321 321 321 322 322 323 322 321 321
322 323 319 314 317 320 318 317 320 321 322 326 325 322 325 323 320 318 316 315 314 313 318 322 317 314 314 314 314 313 313 312 311 310 311 310 311 311 311 311 310 310 310 309 307 303 301 302 303 303 305 306 308 309 309 309 309 309 310 311 312 313 315 316 316 316 317 317 318 319 318 320 321 320 319 320 320 319 319 320 321 322 322 322 321 320
320 319 312 311 316 322 322 317 318 319 321 323 323 323 325 324 321 319 318 318 318 316 314 316 319 321 320 319 319 320 320 318 314 313 313 311 309 309 310 310 309 310 309 309 309 306 301 300 301 302 304 305 307 308 308 309 309 309 309 309 310 312 314 314 315 315 315 316 316 316 315 315 315 314 314 316 317 317 318 319 321 321 321 321 320 320
320 315 313 316 316 321 324 320 321 322 322 324 323 322 322 323 321 319 320 320 323 325 317 315 322 329 330 328 325 326 326 321 318 318 318 316 313 311 311 310 309 309 308 308 308 307 302 300 300 302 303 304 306 308 308 308 308 308 308 308 309 312 313 313 314 315 315 316 317 316 314 311 310 309 311 315 317 317 318 319 320 320 320 320 320 320
319 312 315 324 321 319 321 321 322 320 321 324 321 319 317 317 319 319 320 320 325 328 317 313 320 325 327 324 320 324 324 320 318 318 318 316 315 315 314 313 311 310 309 309 307 306 303 300 300 301 302 304 305 307 308 308 308 307 308 309 309 311 312 312 313 314 315 315 316 317 317 315 314 313 314 318 319 319 319 319 319 319 319 319 319 319
317 315 316 322 323 321 319 322 322 316 322 326 318 318 318 317 320 321 319 320 324 324 317 317 321 322 323 320 320 326 325 321 320 319 317 316 314 314 315 313 313 312 311 311 309 307 303 300 300 301 301 303 305 307 308 307 307 307 308 310 310 311 311 311 312 313 314 315 315 317 317 317 317 317 318 319 317 318 318 318 318 318 318 318 318 317
315 320 319 318 321 321 321 327 323 315 322 323 314 316 319 320 324 323 323 323 322 322 320 320 320 321 326 326 326 326 322 320 321 319 318 317 316 315 315 315 314 314 312 311 310 307 303 300 300 301 301 303 304 306 308 307 307 307 308 309 310 309 310 311 311 312 313 313 314 315 315 315 314 314 316 317 315 316 316 316 317 317 317 317 316 315
313 316 316 317 320 321 321 320 315 316 320 315 309 315 317 319 322 323 326 325 326 326 322 321 321 319 325 331 328 322 320 321 319 319 319 318 319 317 317 317 317 319 316 312 309 304 300 300 301 301 301 302 303 305 307 308 307 307 307 307 307 307 309 310 311 311 311 311 312 312 312 312 312 311 312 313 311 310 312 314 315 316 316 315 314 311
312 309 311 317 318 318 318 313 310 316 317 311 316 322 322 323 323 324 326 323 328 330 320 320 323 317 321 331 329 319 320 326 322 322 323 322 327 327 323 322 322 324 320 314 310 302 298 300 301 300 301 302 303 305 307 307 307 307 306 306 306 306 308 310 310 310 311 311 311 310 310 311 311 311 310 309 307 307 309 311 313 313 313 313 311 309
313 314 315 317 315 315 318 315 311 312 311 316 328 329 324 326 324 324 326 324 327 328 320 318 320 318 321 327 327 320 317 321 321 324 326 326 333 332 328 328 326 322 319 315 313 306 300 300 300 299 300 302 303 305 306 306 306 306 306 305 306 305 306 308 310 310 310 310 310 309 310 310 310 311 311 310 310 309 311 312 311 310 309 308 307 305
315 319 318 314 312 316 323 322 316 313 313 320 329 326 322 325 323 323 328 326 327 323 316 315 317 318 320 320 320 319 316 316 316 318 321 323 328 326 323 327 326 321 319 317 315 311 305 301 299 298 300 302 304 305 305 306 306 306 306 305 305 304 304 306 307 308 308 309 309 309 308 308 308 309 310 311 311 312 312 312 312 309 307 307 305 302
318 318 316 314 315 317 321 321 320 319 318 320 324 324 324 325 324 325 327 322 321 319 313 311 317 319 320 321 320 317 315 315 314 315 317 317 320 319 316 319 321 319 318 317 315 312 308 301 298 298 300 301 303 305 305 305 305 305 305 304 304 304 303 303 305 305 305 306 307 307 307 306 307 307 308 309 311 312 312 312 314 312 310 310 307 304
319 318 317 316 318 318 317 317 322 322 318 319 321 322 324 326 325 326 329 326 322 323 317 311 316 324 325 324 322 318 317 317 317 317 315 313 313 313 313 315 317 318 316 315 313 310 304 298 297 298 300 301 303 304 305 305 304 304 304 304 304 303 302 302 303 303 303 304 305 305 305 304 306 307 308 309 310 311 311 312 314 312 311 311 309 307
316 319 320 316 315 316 316 318 322 321 317 318 320 320 321 324 324 320 319 321 322 325 323 318 320 325 325 322 320 320 322 323 321 316 316 317 314 312 314 316 315 315 314 314 314 310 302 297 297 298 299 301 303 304 305 304 304 304 303 303 303 303 302 301 302 302 303 303 303 303 303 304 305 306 306 307 308 309 309 311 313 312 311 310 308 306
317 319 317 313 313 314 316 319 319 318 317 318 318 320 319 319 326 323 314 312 315 318 322 323 322 322 321 320 320 321 325 327 323 320 323 322 316 315 318 318 316 316 316 316 315 310 302 297 297 298 299 300 302 303 304 304 304 304 303 302 302 302 301 301 301 302 302 302 302 302 303 304 305 306 306 307 307 307 307 308 309 309 307 306 306 304
320 321 316 313 315 313 310 316 319 316 316 319 321 321 316 315 323 327 320 319 321 322 324 324 321 319 319 321 321 319 319 321 321 322 323 321 319 321 321 318 317 319 319 318 315 307 300 296 296 297 298 300 301 303 304 304 304 304 303 303 302 301 301 301 301 301 301 301 302 302 303 303 304 305 305 306 306 305 305 305 305 305 303 302 302 300
317 318 318 313 315 313 310 315 320 315 312 318 321 319 318 322 324 323 322 324 324 324 329 328 322 317 318 322 322 319 321 323 322 321 320 320 321 319 319 317 315 318 322 321 319 312 301 296 296 297 298 299 301 302 303 304 304 303 303 302 302 301 301 301 301 300 300 301 302 302 303 303 303 303 304 304 303 302 302 303 304 303 301 299 298 295
316 315 320 312 311 314 314 316 321 319 313 314 315 314 317 323 324 322 322 322 322 324 327 330 326 320 319 325 324 320 324 327 325 324 324 325 324 319 322 325 318 318 325 324 323 320 306 296 296 297 298 299 300 301 303 303 303 303 303 302 302 301 300 300 300 299 299 300 301 301 301 301 302 302 304 304 303 302 302 303 303 302 300 298 295 292
315 313 318 315 311 315 319 318 318 319 316 315 317 317 317 319 320 322 321 319 323 328 328 329 326 318 319 324 324 321 323 323 324 328 329 331 330 326 328 329 321 319 324 324 324 322 309 296 295 297 298 299 299 300 301 302 303 302 302 301 301 301 300 299 299 299 299 299 300 300 300 300 301 302 302 302 302 302 302 301 300 299 297 295 292 290
316 316 320 320 316 317 321 318 315 317 317 316 317 318 317 318 319 319 319 318 321 324 325 326 322 316 320 322 320 322 325 320 320 323 325 330 334 336 335 328 321 321 325 324 323 322 308 295 294 296 297 298 298 299 300 301 302 302 301 301 301 301 300 299 299 298 298 298 299 299 299 301 302 301 300 300 300 300 299 298 297 296 294 292 290 290
319 321 322 321 320 320 318 313 311 315 318 317 317 318 317 316 318 320 321 320 321 319 318 321 322 320 321 321 320 322 323 322 321 319 321 328 332 337 342 332 320 317 321 320 320 318 304 294 294 296 296 297 297 298 299 300 301 301 301 301 300 300 300 299 299 298 298 298 298 298 298 299 300 300 298 298 298 298 299 298 295 294 292 290 289 289
318 320 319 318 322 323 318 312 310 311 315 317 317 317 317 317 318 323 323 320 321 322 320 321 323 320 317 319 319 320 319 320 322 318 319 327 331 333 336 330 318 315 316 316 316 311 298 293 295 295 294 296 296 297 298 298 300 300 300 300 300 299 299 299 299 298 298 298 297 297 297 297 297 298 296 296 296 297 299 298 295 293 291 289 289 289
316 320 319 317 321 322 319 317 315 313 315 318 320 319 317 317 318 320 320 318 319 323 323 322 322 319 319 320 318 318 318 319 322 320 317 323 332 334 331 323 318 318 317 314 313 309 302 300 298 294 294 295 295 296 297 297 298 299 299 299 299 299 299 298 298 298 297 297 297 296 296 296 296 296 295 295 295 296 297 296 295 292 290 288 288 288
318 321 318 317 319 320 318 319 321 319 317 317 322 321 317 317 319 318 319 319 319 322 322 320 319 317 320 321 318 318 320 321 324 325 320 320 325 327 325 322 322 322 321 316 313 309 306 305 299 293 294 295 295 296 296 297 297 298 298 299 298 298 298 297 297 297 296 296 296 295 294 294 294 294 295 295 294 294 294 294 293 292 289 288 288 288
323 323 317 317 319 318 318 317 319 322 321 319 321 320 316 316 318 317 318 319 319 320 320 319 318 318 319 321 321 321 323 326 326 326 323 322 323 322 320 318 316 317 318 315 311 308 307 306 300 295 294 294 295 295 296 296 297 297 297 297 297 298 297 296 296 295 295 295 294 294 294 293 292 293 294 294 293 293 293 293 292 291 289 288 287 287
323 321 319 320 318 317 318 317 319 323 323 320 320 319 317 316 316 318 319 319 319 320 320 319 318 319 318 318 323 325 325 327 327 325 325 324 324 323 319 316 317 319 318 315 312 311 312 311 305 297 293 293 294 295 295 296 296 296 297 297 297 297 297 296 295 295 294 294 293 293 293 292 292 292 293 293 292 292 291 291 290 289 288 288 287 287
322 319 319 321 319 318 318 317 319 323 321 319 319 319 318 316 316 317 318 318 318 319 319 318 318 319 317 316 319 321 323 325 325 325 324 320 320 322 321 324 329 330 326 324 322 319 318 320 315 302 294 293 294 294 294 295 295 296 296 296 296 296 296 296 295 295 294 293 293 293 293 293 292 292 291 291 291 290 289 289 288 288 287 287 287 287
320 318 318 320 320 319 319 318 319 320 319 318 319 318 317 316 316 317 317 317 318 318 318 318 319 319 317 316 317 318 319 321 321 321 319 317 319 323 325 327 330 329 327 326 325 321 319 321 316 302 294 293 293 293 294 294 295 295 295 295 296 295 295 296 295 294 294 293 293 292 292 292 293 292 291 290 290 290 289 288 287 287 287 286 286 287
316 319 319 319 319 319 318 318 319 319 319 319 319 319 318 316 316 316 317 317 317 318 318 318 319 318 316 316 319 321 320 319 319 320 319 319 321 323 323 323 323 323 324 323 322 319 316 315 312 303 295 294 294 293 293 294 295 295 295 295 295 295 295 295 294 294 293 293 293 292 291 291 292 292 292 291 290 289 288 288 287 286 286 286 286 286
314 318 320 319 319 320 319 319 319 318 318 318 318 319 319 317 316 315 316 316 317 318 318 318 319 318 317 319 320 322 323 320 319 320 319 319 321 321 321 320 318 319 321 322 321 318 317 317 315 308 299 295 294 294 294 295 294 294 295 295 295 295 294 294 294 293 293 293 292 291 291 291 290 291 291 291 290 289 288 287 287 286 285 285 285 285
315 317 319 318 320 321 319 320 319 319 320 320 319 318 318 317 316 316 316 316 315 317 318 318 318 316 317 321 320 320 322 321 318 318 318 318 318 320 319 317 316 318 319 320 318 316 318 317 310 303 299 296 296 296 296 296 296 295 295 295 294 294 294 293 293 293 292 292 292 291 291 290 290 289 290 290 290 289 287 286 286 285 285 285 285 285
316 317 318 318 320 321 320 320 320 320 322 323 321 319 318 317 317 317 317 316 315 315 316 316 317 315 316 319 318 318 320 319 317 316 317 318 318 319 319 316 317 318 317 316 315 315 316 311 302 299 299 299 298 299 298 297 296 296 295 294 294 293 293 292 292 292 292 291 291 291 290 289 289 289 289 289 288 287 286 286 285 285 285 285 285 284
316 316 317 318 319 321 320 319 321 323 322 323 325 324 320 317 317 317 317 316 315 315 315 315 316 316 315 316 317 316 317 317 317 316 318 320 319 318 319 318 317 315 314 315 317 317 311 304 299 299 300 300 300 298 297 296 295 294 294 293 293 293 292 292 291 291 291 291 290 290 290 289 288 288 287 287 286 285 285 285 285 285 284 284 284 284
316 315 317 318 318 320 320 321 323 324 321 322 327 326 320 318 318 318 318 317 315 314 315 315 315 314 315 315 315 316 317 317 317 317 317 318 318 318 319 319 317 316 316 316 314 311 305 300 299 300 300 300 299 297 295 295 294 293 293 293 293 292 292 291 291 290 290 290 290 290 289 289 288 287 287 286 285 285 284 284 284 284 284 284 283 283
316 316 316 318 318 319 321 321 321 322 322 322 323 322 320 318 318 319 319 318 316 314 314 314 314 314 315 315 315 316 316 316 315 315 315 318 319 318 316 315 314 313 310 306 304 303 301 300 300 300 299 298 296 295 295 294 293 293 292 292 292 291 291 291 290 290 290 290 290 290 289 289 289 288 287 286 286 285 285 284 284 284 284 284 283 283
315 315 316 319 319 318 320 321 321 322 323 321 319 319 320 319 318 318 319 320 318 316 315 314 314 315 315 315 316 315 314 316 316 315 318 321 318 314 313 311 306 301 298 297 297 298 298 298 298 297 297 296 295 294 294 293 293 292 292 291 291 291 290 290 290 290 290 290 290 290 289 289 288 288 287 287 286 286 285 285 285 284 284 284 283 283
315 314 315 317 318 319 320 321 322 323 323 321 321 322 322 321 319 317 319 321 319 318 317 315 314 316 315 314 316 315 315 317 316 316 322 324 315 310 311 310 303 295 292 294 296 296 296 296 295 295 295 294 293 292 293 292 292 292 291 290 290 290 289 289 290 290 290 290 290 289 289 289 289 288 288 287 286 286 286 285 285 285 285 284 284 284
315 316 316 317 318 319 319 320 321 321 321 322 322 320 318 317 317 321 322 322 320 321 320 317 315 316 315 315 316 316 317 317 315 317 321 316 307 303 302 304 302 296 291 292 293 294 294 294 293 292 292 292 292 291 292 292 292 291 290 289 289 289 289 290 290 290 290 290 289 289 289 289 289 288 288 288 287 286 286 286 286 286 286 286 286 286
316 316 317 318 319 318 319 321 321 319 323 326 321 315 314 315 318 323 323 321 323 326 320 316 319 318 315 316 316 314 314 316 316 315 311 306 306 304 296 292 293 292 290 291 291 292 292 292 292 291 291 291 292 291 291 292 291 290 289 289 289 289 290 291 291 290 290 289 289 289 289 288 288 288 288 288 287 287 287 287 287 287 287 286 286 285
317 317 317 318 318 317 318 320 319 320 324 325 316 311 314 318 320 323 321 319 326 331 321 315 320 320 317 317 317 314 314 315 313 312 309 306 307 307 297 290 291 291 290 290 290 291 291 290 290 290 289 290 291 291 291 292 290 289 288 288 289 290 290 290 290 289 289 289 288 288 288 288 288 287 287 287 287 287 287 287 287 287 286 285 285 284
318 318 318 317 318 318 319 319 320 320 319 316 313 312 315 319 324 327 323 316 317 322 321 317 317 316 316 319 318 313 313 314 310 309 308 303 300 300 296 293 293 292 290 289 289 290 290 288 287 288 288 289 290 291 291 291 290 288 288 289 289 290 290 289 289 289 288 288 288 288 288 287 287 287 287 287 287 287 287 286 285 285 285 284 284 283
316 317 318 317 317 318 318 318 322 324 317 313 316 317 315 318 325 328 325 319 316 315 316 318 318 313 312 318 317 311 311 312 307 304 303 300 297 296 294 292 291 290 288 288 288 289 289 287 286 287 287 288 290 290 291 292 290 288 288 289 289 289 289 288 288 288 288 288 288 287 287 287 287 287 287 287 286 286 286 285 284 284 284 284 284 284
315 316 317 317 316 317 318 318 322 325 317 312 317 321 317 317 321 318 316 319 320 314 311 319 327 319 310 311 312 309 307 308 304 301 302 300 296 293 292 291 289 288 287 287 287 288 288 287 286 286 287 287 289 289 290 291 291 289 288 289 289 289 289 288 288 288 288 287 287 287 287 286 286 286 286 286 286 286 285 285 285 285 285 285 285 286
316 316 316 317 317 316 316 317 318 318 314 311 313 316 316 316 316 313 312 315 318 314 309 314 323 319 307 305 310 310 305 303 302 299 297 296 294 292 291 289 287 286 286 286 286 287 287 287 286 286 286 287 288 289 289 290 291 290 289 289 289 289 289 288 288 288 288 287 287 287 286 286 285 285 286 286 286 286 286 287 287 287 286 286 286 286
315 314 313 315 317 316 317 319 318 317 315 313 311 309 311 311 309 307 311 315 316 314 312 312 313 309 302 301 308 310 303 299 301 299 294 293 293 291 291 290 287 285 286 286 286 286 287 286 285 285 285 286 287 289 289 289 290 290 289 288 288 289 289 288 288 288 287 287 287 286 286 286 286 285 285 286 286 286 287 287 287 287 287 286 286 285
312 310 310 313 315 315 317 319 316 311 310 311 311 311 314 315 310 306 307 307 305 305 306 306 305 303 300 299 302 305 301 296 297 297 293 292 291 290 290 289 286 284 285 286 286 286 286 285 284 284 283 284 286 288 289 289 289 289 289 289 289 289 289 288 288 288 287 287 287 287 287 287 287 287 286 287 287 287 287 287 287 286 286 286 286 285
310 308 309 311 312 313 315 316 312 309 308 309 309 309 311 312 309 306 302 300 299 300 301 301 298 298 299 298 298 301 302 297 295 295 293 291 290 289 288 286 284 283 285 285 285 286 285 284 283 282 282 282 285 288 288 288 289 289 289 289 289 289 289 289 289 288 288 288 288 288 287 287 287 287 287 287 286 286 286 286 285 285 285 285 284 284
308 308 309 310 310 311 314 314 312 311 313 314 311 308 308 305 303 302 300 298 299 300 300 300 296 292 293 294 295 299 302 297 292 292 292 291 290 289 286 284 283 283 284 284 285 285 284 283 282 282 281 281 284 287 287 288 288 288 289 289 289 289 289 289 288 288 288 287 288 287 287 287 287 286 286 286 285 285 284 283 283 283 283 283 283 283
309 310 310 310 311 312 314 314 311 310 312 315 313 311 308 303 300 301 301 300 301 299 298 299 300 296 293 292 291 295 298 295 291 291 292 290 288 286 284 283 283 282 282 283 283 282 281 281 281 281 280 281 284 286 286 287 287 287 288 288 288 288 289 288 288 287 287 286 287 287 286 286 286 285 285 285 284 284 283 283 282 282 282 282 282 282
Wind_Speed
3 3 2 5 6 7 8 6 6 6 6 7 5 4 3 3 4 5 3 5 1 2 6 6 7 12 13 13 13 7 1 4 9 10 11 10 9 9 10 11 11 11 13 13 13 17 20 22 24 26 27 26 25 24 23 21 20 20 21 21 21 22 22 22 23 25 26 24 21 20 22 23 23 24 24 23 23 22 20 17 14 12 13 19 23 22
5 3 6 7 7 7 6 6 8 6 6 6 5 3 0 3 6 5 2 4 2 2 5 3 5 13 14 13 12 6 4 8 11 12 13 13 11 10 10 13 12 10 10 9 10 14 17 19 22 25 27 28 28 28 26 24 23 22 22 23 23 24 25 25 25 25 26 25 23 24 25 23 22 22 23 24 24 22 20 18 16 13 13 20 24 21
3 4 7 4 6 6 5 6 7 6 5 4 3 2 2 3 4 5 2 4 1 2 4 4 5 12 13 14 14 9 9 11 11 12 14 12 11 11 11 12 11 10 10 9 9 11 16 19 22 25 28 30 31 30 28 25 24 24 24 25 25 26 27 27 26 27 27 26 25 26 25 24 23 23 23 23 23 22 21 21 19 15 17 23 23 17
2 6 6 4 8 8 6 4 7 6 3 2 4 4 3 3 1 3 4 3 1 2 2 4 5 9 10 12 14 11 8 9 10 12 13 11 12 15 13 10 9 11 13 11 8 9 14 18 22 26 29 30 30 29 28 27 26 25 26 26 26 27 27 27 27 28 28 26 26 25 24 25 24 24 24 23 23 23 22 22 20 18 21 24 20 15
5 5 1 4 6 8 7 4 6 6 1 2 4 5 4 4 4 4 4 3 2 2 1 2 6 7 6 8 11 7 4 7 7 8 11 11 13 14 12 10 11 12 12 11 9 8 12 19 24 27 29 29 29 30 31 31 29 27 26 25 27 27 27 28 28 28 28 27 26 24 23 23 22 22 23 23 23 23 23 23 21 20 21 22 19 17
6 5 5 6 4 6 7 4 5 7 3 4 4 8 9 7 5 3 3 5 4 4 2 1 3 6 4 6 9 5 6 9 5 5 11 12 10 9 9 12 12 11 11 10 9 8 12 19 22 24 26 28 31 33 32 32 30 27 26 25 26 28 28 28 29 29 29 28 28 27 25 24 22 22 24 25 25 24 24 23 22 22 23 22 21 21
3 1 3 6 5 6 6 2 6 7 5 2 4 7 8 5 5 3 1 2 1 4 3 2 2 6 6 8 11 6 8 12 8 8 12 12 10 8 9 11 9 9 9 7 8 7 11 16 19 23 28 31 32 32 30 29 28 26 26 26 27 28 29 30 31 30 30 29 28 28 27 26 26 26 27 27 26 25 24 24 23 23 24 24 22 24
4 3 3 6 6 6 5 3 6 8 7 3 3 4 6 7 6 5 5 3 3 3 3 2 3 4 6 8 9 4 7 11 11 12 13 11 12 10 9 10 9 8 7 6 7 8 10 15 20 24 29 31 31 29 28 28 29 27 28 29 30 30 30 31 31 32 31 30 29 29 29 29 29 29 30 29 27 26 25 24 23 23 25 25 23 25
3 6 6 7 5 4 5 4 8 11 6 4 3 5 6 6 5 5 5 3 1 3 4 2 4 3 7 7 5 2 5 10 12 13 13 11 11 10 9 9 7 7 6 6 7 7 9 15 21 24 26 29 29 28 28 30 31 30 29 30 31 31 32 32 32 33 32 32 31 31 31 30 29 29 29 30 28 27 26 26 25 25 26 26 26 28
1 5 7 7 5 5 4 1 5 8 4 3 5 7 6 6 5 5 4 3 3 3 4 6 6 3 6 6 4 1 3 8 11 11 10 10 9 8 8 7 6 5 4 5 6 6 10 15 20 22 23 25 27 27 28 29 30 30 29 30 30 31 32 33 33 33 33 33 32 32 31 31 30 28 27 28 28 27 27 27 27 27 27 27 28 29
1 1 2 4 4 5 5 4 2 4 5 6 6 6 7 5 4 4 2 4 3 4 4 8 10 5 4 6 4 5 5 6 7 7 8 8 8 8 6 5 5 4 4 4 4 5 8 12 15 18 20 22 25 26 27 28 30 31 30 30 31 31 33 33 33 34 33 33 33 32 32 31 31 30 28 28 29 28 28 28 29 29 29 29 29 29
2 1 2 2 2 5 7 5 4 4 5 6 4 4 4 3 4 4 4 3 2 5 3 5 5 3 4 7 4 6 7 5 6 6 8 8 8 8 4 4 4 3 3 4 3 4 4 6 10 15 18 20 23 25 27 29 30 32 32 32 32 32 33 34 35 35 34 34 33 33 33 32 31 30 29 31 31 31 30 30 30 30 30 30 30 30
2 4 3 1 1 4 6 6 5 4 2 4 5 5 4 2 3 2 3 0 3 6 3 2 1 1 7 9 8 12 13 11 9 9 10 9 10 9 4 4 4 2 3 3 3 4 4 5 8 13 16 19 23 26 27 29 30 32 32 33 33 33 33 35 35 36 35 35 34 34 33 32 31 30 30 32 32 31 32 32 32 32 32 32 32 32
3 5 1 2 1 3 7 6 3 2 3 5 6 5 4 2 1 3 3 1 4 5 2 3 2 2 5 7 11 18 18 14 9 9 11 10 12 11 6 4 5 4 4 4 4 5 5 6 9 13 17 20 23 25 27 29 30 31 32 33 33 32 32 34 35 35 35 35 34 34 33 32 32 31 32 33 32 31 32 33 34 34 34 34 34 34
5 6 5 7 3 6 10 8 6 7 5 5 4 5 5 5 5 5 3 3 5 4 2 2 2 4 4 4 8 12 13 11 7 8 9 9 11 10 7 6 7 7 5 4 5 5 6 8 11 14 17 20 23 25 27 28 29 30 30 32 32 32 32 33 34 35 35 34 34 33 33 33 33 33 33 33 31 31 33 34 34 36 35 34 34 35
5 7 6 3 1 9 11 4 5 8 3 2 2 4 4 5 5 2 3 5 3 2 3 2 4 5 5 6 9 7 8 9 8 7 7 9 10 7 7 8 7 6 5 5 6 6 7 9 13 15 18 21 23 25 27 28 29 30 30 31 32 32 33 34 35 35 35 34 33 33 33 33 33 33 33 32 31 32 33 34 35 36 35 34 35 36
3 5 5 3 1 5 6 2 3 4 3 2 2 4 4 3 7 4 2 1 3 2 4 2 5 6 3 7 10 8 8 9 8 8 8 10 8 5 7 8 6 6 5 6 7 6 6 9 14 17 19 21 23 25 28 30 31 32 32 31 31 31 32 34 35 35 34 33 32 32 33 33 33 34 33 32 31 32 34 35 36 37 36 36 37 37
5 3 5 2 1 2 1 2 3 2 3 6 4 6 3 2 4 4 2 2 2 3 5 2 6 6 3 5 6 5 9 11 10 10 10 8 7 7 9 7 6 6 5 6 6 5 6 9 13 17 20 23 25 27 29 31 31 32 32 32 32 32 33 35 36 35 34 33 33 33 33 34 34 34 33 31 31 32 34 35 36 37 37 37 38 38
4 2 5 1 2 3 3 3 2 4 3 5 5 4 4 3 2 2 3 3 2 3 4 4 5 5 5 6 4 5 9 12 13 12 9 9 10 10 9 7 5 4 5 6 5 5 5 8 13 17 19 22 25 26 28 29 30 31 32 33 34 34 34 35 36 35 34 34 33 34 34 35 35 34 33 31 31 32 34 35 35 36 37 37 38 39
3 3 4 2 1 1 3 2 5 2 2 3 1 2 2 2 4 3 3 3 4 3 3 4 5 5 7 7 7 10 12 12 12 9 8 11 11 9 7 6 5 4 5 5 5 5 5 8 14 17 20 23 25 26 27 28 29 31 32 32 32 32 32 33 35 35 34 34 34 34 35 35 35 35 33 32 32 33 35 36 36 36 37 38 39 40
2 3 4 2 3 1 3 5 8 9 6 4 3 4 3 1 2 1 1 2 4 3 2 2 5 9 7 5 9 12 11 11 10 9 9 10 9 7 7 6 5 5 6 6 5 5 5 8 13 16 18 21 23 25 26 27 29 30 31 32 32 32 32 33 35 36 35 35 35 35 36 36 36 35 34 33 34 35 35 36 36 37 38 39 41 41
3 3 3 2 1 4 5 4 5 9 9 8 8 8 9 6 4 3 3 1 2 3 4 3 5 12 6 5 8 9 8 9 9 10 10 7 7 7 7 5 6 6 6 5 5 4 4 6 10 13 16 18 20 23 26 27 29 29 31 32 33 34 34 35 35 36 36 35 36 36 36 37 37 36 35 35 35 35 36 36 36 37 38 40 41 41
4 3 3 3 4 6 4 2 1 4 4 4 4 5 6 6 6 6 5 4 2 1 2 3 3 11 5 4 7 7 6 6 6 7 8 7 8 7 5 5 6 6 5 4 4 4 4 6 9 11 14 17 20 22 25 27 29 30 32 33 33 35 36 36 36 36 36 36 36 36 36 36 37 37 36 36 36 36 36 36 36 37 39 41 42 41
3 2 3 4 3 2 3 3 2 1 2 3 4 2 3 4 5 4 4 4 3 3 2 3 4 11 5 1 4 4 4 5 4 6 8 7 7 5 4 5 6 6 5 4 4 4 4 6 8 10 13 16 18 21 23 26 29 30 31 33 34 35 36 36 36 36 36 36 36 35 36 36 36 36 36 36 36 36 36 35 36 37 40 41 41 41
4 3 5 4 3 3 3 2 1 1 1 3 4 3 5 7 5 4 1 2 2 6 8 5 7 10 4 3 3 3 4 6 6 5 6 7 7 5 5 6 6 4 4 4 4 4 4 6 7 9 13 15 18 20 23 25 27 29 31 33 34 34 34 34 35 36 37 36 36 35 36 36 36 36 36 36 36 36 36 36 36 38 40 41 40 40
5 4 6 6 6 7 6 5 4 3 2 1 4 6 8 9 10 5 3 3 5 9 9 6 10 12 4 4 4 5 4 6 8 5 5 6 7 7 6 5 5 3 3 5 5 5 5 6 6 9 13 16 19 22 24 25 27 29 30 32 33 33 33 33 34 36 36 36 36 36 36 36 35 35 36 36 36 36 36 36 37 38 40 41 41 40
2 2 7 10 11 11 11 9 4 6 6 5 8 9 9 10 12 9 5 6 10 11 7 8 15 17 12 4 5 7 5 5 8 6 5 7 7 8 7 6 5 4 4 4 5 6 6 6 7 9 14 18 20 22 24 26 27 28 29 30 31 31 32 33 33 35 36 36 36 36 36 35 34 35 35 35 35 35 36 36 37 38 40 41 41 40
3 3 7 10 12 13 14 13 6 8 8 12 13 12 12 12 12 12 11 14 13 10 11 15 16 17 20 13 8 8 8 8 9 7 7 7 7 7 7 6 5 4 4 4 5 7 8 7 7 9 13 18 20 22 24 25 26 27 28 29 30 31 32 32 33 34 35 35 35 35 35 34 33 33 34 34 34 34 35 36 37 38 39 40 41 41
4 6 8 9 12 14 16 14 7 8 7 8 12 14 15 15 15 16 19 21 18 12 13 18 15 16 22 19 12 12 10 9 9 9 7 6 6 6 7 7 6 5 4 5 7 9 8 8 7 8 12 16 18 21 22 23 25 26 27 28 29 31 32 33 34 34 34 34 34 34 34 33 33 33 32 32 33 34 34 35 36 37 38 39 40 40
4 7 11 11 12 14 17 16 9 9 7 6 8 11 13 15 19 22 23 24 22 17 16 20 20 19 22 18 12 11 10 9 8 6 4 4 6 8 8 8 7 7 7 8 9 10 8 7 8 7 10 14 18 21 21 23 25 26 27 28 28 31 33 33 34 34 34 35 35 33 32 33 34 33 33 33 33 34 34 35 35 36 37 38 40 40
2 6 7 7 7 11 17 19 13 9 7 9 9 7 10 15 20 23 22 19 17 17 20 22 21 21 20 11 8 8 8 7 8 7 6 7 9 11 11 10 9 8 9 9 10 9 6 7 8 7 9 15 19 21 22 23 25 26 27 27 29 31 32 32 33 34 34 35 33 31 31 32 33 34 34 34 34 34 34 35 35 36 38 38 39 39
3 3 1 4 5 10 15 18 16 9 6 9 10 10 15 19 18 17 15 14 15 17 19 18 15 20 16 6 6 9 8 9 11 11 10 11 11 13 14 13 11 9 10 11 10 8 7 8 8 8 12 17 19 21 23 24 24 26 27 29 30 30 31 32 33 33 33 33 32 31 31 32 33 34 34 34 34 34 35 35 36 36 36 37 38 38
6 4 3 4 5 10 15 15 10 7 6 9 14 20 25 22 15 10 11 17 20 17 14 13 15 21 15 6 7 11 8 9 12 11 11 13 14 14 14 12 10 10 11 11 9 8 8 9 10 12 15 18 19 22 24 24 26 28 29 29 29 29 31 32 32 31 31 31 30 30 30 31 32 32 33 34 34 35 35 35 35 35 35 36 36 36
7 8 6 5 4 8 12 6 4 5 9 10 13 20 24 21 17 16 19 23 22 16 14 15 17 21 17 9 11 13 9 10 12 12 13 13 12 12 11 10 11 12 11 8 7 9 9 9 10 13 15 16 17 19 20 22 24 25 24 25 26 27 28 29 28 28 27 28 28 28 28 29 30 31 31 32 32 33 34 35 35 34 34 35 35 36
8 9 7 5 4 6 5 3 4 8 10 8 7 8 13 17 22 24 26 25 21 17 18 19 21 23 21 14 11 12 12 12 11 12 13 11 8 8 9 9 11 10 8 8 9 10 9 8 9 11 13 14 15 15 16 18 20 19 19 21 22 24 25 25 25 24 24 25 26 26 26 27 27 28 28 28 28 29 30 31 31 32 33 34 34 35
9 8 6 4 5 4 3 5 8 7 3 4 7 5 5 9 15 17 18 21 20 18 18 22 26 27 22 15 13 12 11 8 8 9 9 8 7 8 9 10 9 9 9 9 9 9 9 9 11 12 12 11 11 13 15 17 18 18 17 19 21 22 23 24 24 24 24 25 26 26 27 27 27 27 27 27 27 27 27 28 29 30 30 30 30 30
9 8 5 5 6 5 6 8 8 7 6 8 13 9 5 6 10 12 12 17 18 19 20 23 26 25 20 16 16 13 6 5 11 9 7 9 11 11 10 10 8 8 8 7 8 10 11 11 10 9 8 8 11 14 15 17 19 19 19 20 21 22 23 24 25 26 26 27 28 28 28 28 28 28 28 28 28 28 28 28 28 28 28 27 26 26
10 9 7 7 6 6 8 9 7 7 8 13 18 12 6 8 11 12 10 12 15 18 21 22 21 20 17 17 17 10 2 4 14 10 7 10 11 9 8 8 5 5 7 7 9 9 8 8 7 7 9 11 12 14 16 18 20 21 21 21 22 23 24 25 26 26 27 27 28 28 28 28 28 28 28 28 28 28 28 28 27 27 27 26 25 24
13 10 9 8 6 6 8 8 8 8 8 12 15 9 6 10 9 9 6 12 16 15 16 16 18 18 18 18 16 8 5 7 15 10 6 8 6 5 6 6 3 4 5 5 7 7 7 7 8 10 12 14 15 15 17 20 21 22 22 22 23 23 23 24 25 26 26 26 26 26 26 26 26 27 27 28 28 27 27 26 26 25 24 24 24 24
13 9 9 10 8 8 9 9 7 6 6 8 7 4 6 10 13 10 7 13 11 7 10 14 17 19 20 18 11 7 9 12 13 7 4 6 4 3 4 4 4 4 4 5 6 8 10 11 13 14 14 15 17 17 19 20 21 21 21 21 21 21 22 23 23 23 23 23 23 24 24 25 25 26 26 27 26 26 25 24 24 23 23 24 23 23
8 7 8 10 10 12 13 11 6 4 6 6 3 4 7 10 11 9 11 8 3 6 10 14 17 19 19 13 8 8 10 9 4 1 4 5 4 2 1 2 3 4 6 8 10 12 13 13 14 15 15 16 18 19 20 21 21 20 19 20 20 20 21 21 21 21 21 21 21 22 23 23 24 24 25 25 24 24 23 23 22 22 23 23 23 23
7 6 6 8 9 10 10 9 7 6 5 4 4 5 6 6 6 9 8 4 3 7 9 11 15 16 12 8 8 9 7 3 3 4 5 4 4 3 3 3 4 5 7 10 12 14 16 15 15 16 16 17 19 19 20 20 20 19 19 19 19 18 17 17 18 18 19 20 20 20 21 22 22 22 22 22 22 22 22 21 21 21 21 22 22 22
8 7 6 7 7 7 8 8 7 6 3 7 9 4 2 6 6 5 4 2 4 6 7 8 10 8 6 7 9 8 4 4 4 4 4 3 3 3 3 4 5 6 8 10 12 15 18 18 17 17 17 17 19 19 19 19 19 19 19 18 17 16 15 16 17 17 18 19 19 19 20 20 21 21 21 21 21 21 21 21 20 20 21 21 22 22
6 6 4 5 6 6 7 8 6 4 4 8 9 6 8 10 5 4 5 5 4 4 6 6 6 6 6 7 8 6 5 5 4 4 4 4 3 3 3 4 5 6 8 11 13 16 20 20 18 18 17 17 18 18 17 18 19 19 18 16 15 15 15 16 16 17 17 18 18 18 19 19 19 20 20 20 20 20 20 20 20 20 20 20 20 19
8 8 6 5 6 6 6 6 5 4 5 8 8 7 9 10 5 4 5 4 4 4 4 4 5 6 7 6 6 6 5 5 5 5 5 5 4 4 4 4 5 7 9 12 14 17 20 21 21 21 18 16 16 16 15 15 17 18 17 15 15 16 16 16 17 17 17 17 17 18 18 18 18 18 18 19 19 19 19 19 19 19 18 18 18 18
5 5 4 4 4 6 5 3 4 4 4 7 9 5 4 6 5 5 6 4 4 5 5 3 4 3 6 6 6 6 6 5 7 6 5 6 5 5 5 4 5 8 11 13 15 19 22 23 22 22 20 17 15 15 14 14 16 17 17 16 15 15 16 17 18 18 18 18 18 18 18 19 19 18 18 18 18 17 17 16 17 17 17 16 16 16
3 1 2 3 4 7 6 6 8 8 6 7 8 6 4 7 6 3 4 4 3 3 5 5 3 3 5 7 7 7 7 7 8 7 5 6 6 5 5 5 6 8 11 14 17 21 24 23 21 20 20 18 16 15 15 15 16 17 16 16 16 16 17 18 19 19 19 19 18 18 18 19 19 19 18 17 17 16 14 14 14 14 15 15 16 17
3 3 2 3 5 6 6 6 6 4 3 4 6 6 6 7 6 4 4 4 3 2 2 3 3 4 6 7 7 7 8 8 9 9 7 6 6 6 6 6 7 9 12 15 18 21 22 21 20 20 20 18 17 17 17 17 18 17 17 16 16 16 17 18 19 19 19 18 18 18 17 17 18 18 17 16 15 14 14 13 13 14 14 14 14 14
1 0 1 3 6 6 6 7 4 2 4 7 7 7 8 7 5 5 5 3 2 2 3 2 2 4 6 7 6 8 9 9 9 9 9 7 7 6 6 7 9 11 14 16 18 20 21 21 22 22 21 20 19 20 19 19 19 18 17 16 16 17 18 19 18 18 18 18 17 17 16 16 15 15 16 16 15 13 12 12 11 12 12 11 11 11
3 5 4 2 4 6 7 8 6 3 5 6 6 10 11 7 4 5 5 4 5 6 6 5 2 2 4 5 6 8 9 8 8 8 9 7 7 7 8 9 11 13 15 17 18 19 20 21 23 24 23 21 21 22 21 20 19 18 18 18 16 17 19 20 20 19 18 17 17 17 17 16 15 15 15 16 16 15 14 11 10 10 10 10 10 9
5 8 7 6 7 9 8 8 6 5 6 6 5 8 9 7 6 7 8 8 8 8 8 8 6 5 5 5 5 7 8 9 9 9 8 6 7 9 11 13 14 15 16 19 20 20 20 21 23 25 25 23 23 23 22 21 20 20 20 19 17 17 20 22 22 21 20 18 18 18 18 18 18 17 16 16 16 16 15 13 11 10 9 9 9 9
Wind_Direction
75 99 196 210 203 200 198 172 142 147 119 114 119 104 146 195 269 254 250 296 276 177 260 245 251 270 271 269 269 272 232 245 262 266 264 258 254 254 250 251 248 243 249 256 251 239 234 231 227 222 217 213 212 213 213 213 209 200 200 202 203 204 203 204 203 198 195 191 190 193 193 193 193 197 198 196 195 192 189 189 192 202 215 207 191 183
69 145 230 225 196 186 175 138 116 110 87 90 119 104 203 213 254 255 227 306 317 181 269 294 287 272 268 271 271 258 242 251 249 251 259 255 251 250 247 251 249 249 257 254 241 230 222 222 220 216 213 210 208 208 208 209 206 200 202 205 206 206 204 205 207 203 198 197 201 197 191 192 193 194 194 191 187 185 188 189 188 195 207 195 179 173
46 225 243 206 151 113 90 114 112 105 92 82 112 122 270 248 268 282 306 331 352 183 270 320 299 271 271 276 273 257 240 247 242 239 251 254 255 253 244 247 251 256 259 247 233 220 214 213 212 211 210 209 209 208 207 206 202 200 203 205 207 208 205 204 206 205 201 201 205 200 194 193 190 189 190 190 187 185 188 186 186 197 200 189 179 181
175 251 254 181 141 104 74 88 101 100 96 101 131 141 240 258 285 282 296 331 330 196 269 313 300 275 273 276 273 262 246 256 253 245 253 252 250 254 252 251 248 250 253 249 234 211 208 208 207 208 208 208 207 205 205 203 199 199 201 202 203 206 206 203 203 203 201 199 200 197 193 190 187 187 188 189 190 188 187 184 185 194 193 189 190 195
222 237 189 111 117 110 105 112 121 131 207 252 185 171 203 227 213 234 285 322 326 347 335 304 307 288 275 271 270 282 303 281 261 250 260 253 244 252 263 262 247 244 250 249 236 205 200 206 207 208 208 206 204 205 206 203 200 199 199 199 201 205 205 203 202 202 199 195 193 190 185 184 184 184 185 188 189 187 186 185 185 191 193 195 200 202
249 223 139 101 83 96 113 147 174 160 182 286 234 202 208 210 202 224 352 7 353 336 327 342 290 282 307 285 262 283 308 282 271 259 262 261 252 245 254 258 249 245 248 248 241 212 202 208 209 209 207 205 205 207 208 205 201 198 197 197 200 204 205 203 202 202 201 196 193 190 183 181 179 179 186 191 191 189 189 189 189 192 196 200 203 205
236 204 113 123 128 115 115 176 223 170 135 294 252 208 205 174 156 176 93 45 292 273 287 86 212 270 311 291 268 276 283 277 289 281 266 268 266 247 242 252 252 249 247 247 242 218 207 207 205 207 207 206 207 208 206 202 199 197 196 198 200 204 206 205 203 202 203 199 198 200 198 196 194 193 195 196 195 194 194 194 194 194 196 198 202 205
171 145 91 123 118 118 138 203 221 163 130 246 247 157 158 155 170 178 152 180 233 271 290 123 149 272 290 274 271 285 286 285 289 277 267 263 262 256 251 252 251 251 247 243 238 222 212 208 205 207 208 208 208 206 202 200 198 197 198 200 202 204 206 207 205 203 204 205 205 207 206 206 206 205 200 195 195 196 196 196 196 196 195 194 198 201
158 174 186 162 131 152 185 215 194 156 135 247 206 124 134 148 157 138 129 175 319 350 299 191 145 263 272 273 287 288 282 285 280 273 270 265 261 258 257 258 257 256 250 241 237 228 218 213 211 212 211 209 207 203 201 200 199 199 199 200 201 202 205 208 207 206 206 209 211 210 207 206 204 202 198 195 195 195 195 195 195 195 194 193 197 197
109 199 197 157 149 194 199 276 189 159 153 196 136 102 83 82 84 89 111 120 61 329 263 189 167 218 272 281 294 263 253 263 265 271 270 267 268 261 257 265 272 275 269 252 244 239 228 222 219 216 212 208 204 202 201 200 198 198 198 199 199 201 205 207 208 209 209 210 211 209 207 205 201 198 197 195 194 191 191 192 193 194 195 196 197 195
308 283 214 150 163 182 135 67 53 126 134 139 116 81 60 44 45 59 57 83 72 288 248 192 189 183 272 274 247 230 223 214 234 266 274 276 280 270 262 263 264 275 282 265 258 256 241 231 222 213 208 204 201 199 199 198 197 198 198 198 199 201 204 207 208 209 210 211 211 209 207 203 200 200 199 195 192 189 189 191 192 193 196 197 196 194
331 331 251 210 150 125 101 71 31 55 103 110 97 90 77 356 10 31 350 51 118 253 247 217 208 156 239 256 244 248 250 221 211 244 264 272 275 269 260 255 252 254 269 265 256 252 231 214 209 204 202 198 195 195 196 197 197 197 199 199 199 201 204 207 208 208 209 209 210 210 207 205 205 205 205 200 195 193 192 193 194 193 194 195 193 192
271 233 248 310 152 140 115 83 37 10 36 90 102 108 102 336 355 350 296 128 217 247 222 194 220 195 242 260 269 265 263 248 225 232 248 259 268 268 251 245 260 252 249 252 236 229 210 198 197 196 196 194 193 194 195 195 196 197 199 200 200 202 203 205 207 206 207 208 209 209 208 209 210 210 208 204 199 197 196 196 196 195 194 194 193 191
272 294 271 150 254 192 154 146 147 204 192 158 148 140 138 139 182 246 259 266 264 265 211 162 158 254 266 272 254 249 254 251 232 233 243 249 261 268 268 260 270 266 245 238 231 222 214 209 202 197 196 194 195 196 195 195 196 198 200 201 202 203 203 205 206 205 206 208 210 209 209 211 212 211 209 205 202 201 200 199 199 199 197 198 197 194
214 280 213 176 205 186 182 188 160 142 160 183 162 139 158 166 176 212 215 210 251 282 273 203 179 197 211 257 246 239 258 269 255 247 254 257 258 267 282 274 265 264 253 242 239 231 223 213 205 201 199 198 197 197 196 196 197 199 201 203 203 204 203 204 206 206 206 208 210 210 211 212 213 213 209 206 205 205 203 202 201 201 199 202 203 198
196 259 245 231 230 170 181 202 117 112 139 211 120 116 193 196 152 157 196 178 186 316 303 228 220 213 207 273 273 249 267 277 268 268 268 264 261 264 271 264 257 258 251 243 242 237 228 215 208 205 201 201 199 197 197 198 198 200 202 204 205 205 205 206 207 207 208 209 210 211 212 213 214 211 207 206 207 207 206 204 203 202 201 204 204 199
166 268 286 348 340 172 182 202 127 140 180 160 142 178 210 172 117 115 232 106 84 265 274 230 247 276 313 286 268 251 265 275 278 277 258 254 267 270 260 256 256 258 244 236 238 232 221 211 208 208 204 202 200 198 199 200 201 201 202 203 204 205 206 207 208 208 208 209 210 212 212 213 213 209 208 209 210 211 208 205 203 203 202 203 202 197
162 254 301 52 172 255 270 126 76 23 126 131 184 204 169 104 98 112 201 347 44 243 270 268 250 274 296 276 278 261 260 265 266 262 256 264 272 259 256 252 245 252 252 249 247 236 222 211 209 209 207 206 203 202 202 202 203 203 203 203 203 204 205 207 208 208 209 209 210 212 212 212 211 210 210 213 215 214 210 206 204 204 203 201 199 195
154 225 300 26 184 288 4 107 89 354 65 134 193 191 118 153 199 112 165 202 218 240 273 290 281 266 218 234 257 217 227 241 247 252 259 266 257 250 259 254 231 237 255 258 250 237 225 215 213 209 208 209 207 206 206 204 204 204 204 205 205 206 207 207 209 209 209 210 211 212 212 211 211 211 213 215 216 214 210 207 207 207 205 200 196 194
128 197 271 327 244 294 34 151 190 211 47 66 111 122 100 164 181 169 160 173 195 217 252 301 313 271 216 203 196 205 216 220 229 245 253 251 245 240 250 245 212 212 236 242 237 233 225 218 217 212 209 209 208 208 208 205 205 205 205 206 206 207 208 208 209 209 208 210 211 211 211 211 211 212 214 216 216 214 211 209 208 208 206 201 195 194
101 203 236 319 329 178 178 213 197 179 164 152 163 175 191 165 121 184 188 127 149 172 200 262 288 268 239 185 187 208 219 212 210 224 234 244 245 233 237 233 205 209 227 231 228 227 224 222 221 218 215 213 210 209 208 206 207 207 207 206 206 206 206 208 209 209 209 209 209 210 210 211 212 212 214 215 215 214 212 210 209 207 205 201 197 195
167 194 183 158 232 202 216 244 205 188 181 178 186 194 196 180 151 190 235 217 121 148 182 174 259 270 255 176 194 207 215 216 213 219 229 246 249 235 238 239 222 220 226 228 230 222 214 218 219 217 216 214 211 209 208 207 207 207 207 207 207 207 207 208 208 208 209 209 210 211 211 212 213 213 213 213 214 214 212 210 209 207 204 201 198 197
151 132 150 188 214 215 235 310 213 210 198 191 205 199 194 190 180 184 206 215 162 177 181 114 253 270 259 175 209 219 219 224 220 221 229 245 249 238 236 249 246 240 237 236 239 229 209 206 209 213 214 213 214 212 209 209 208 208 209 208 207 208 209 209 208 208 209 209 210 212 212 213 213 212 212 212 212 213 213 212 210 208 206 203 200 199
128 130 193 231 267 291 309 347 29 63 126 214 237 172 158 200 188 165 179 188 167 187 179 114 245 261 270 207 241 255 258 249 229 222 227 240 259 253 236 248 254 255 264 263 248 241 214 197 199 206 212 214 216 216 214 212 211 210 210 209 209 210 210 209 208 208 209 209 210 211 212 212 212 212 212 211 211 212 212 213 211 209 207 204 202 200
174 185 199 218 267 305 313 308 298 337 128 218 233 186 188 197 159 113 136 165 191 216 196 188 243 254 283 347 287 275 285 272 256 238 230 237 254 253 232 232 235 245 278 273 254 247 215 198 199 204 210 214 215 217 217 216 214 213 212 211 211 211 210 209 208 208 208 209 209 209 210 211 211 211 211 211 211 211 212 212 211 210 207 205 203 201
176 188 187 193 222 233 237 235 221 201 164 210 237 206 200 192 170 173 207 177 220 230 202 196 244 253 289 357 281 264 294 287 271 257 240 241 251 259 253 241 227 212 227 238 240 238 222 212 211 209 211 215 216 217 217 217 217 215 214 213 212 211 209 208 208 207 207 207 207 208 209 209 210 211 211 211 211 212 212 211 211 210 208 206 204 202
138 229 204 199 214 223 234 242 188 131 145 198 221 209 199 198 188 190 211 206 220 234 226 222 237 250 264 261 238 252 253 254 260 257 249 250 252 258 262 259 244 218 216 225 228 232 232 224 218 215 215 218 219 219 218 218 217 216 215 214 212 211 209 207 206 206 206 206 206 207 208 209 209 211 212 212 212 212 212 212 212 211 209 207 205 203
111 246 229 218 227 232 244 248 192 144 178 203 209 205 197 198 191 191 214 224 221 228 241 236 230 245 257 244 218 233 232 231 247 248 240 243 245 253 260 260 256 244 234 234 234 235 233 227 222 218 219 219 220 220 220 219 219 218 217 215 212 210 209 207 205 205 205 205 205 207 208 208 210 211 212 212 212 212 212 211 211 210 209 208 206 205
148 230 231 229 239 242 253 257 205 173 209 207 204 207 199 193 192 199 217 226 223 220 240 246 235 235 250 248 226 221 223 223 233 230 226 239 255 261 254 249 256 259 246 237 238 238 232 234 235 223 221 222 220 220 220 218 219 219 218 216 212 210 209 207 205 204 204 204 206 206 207 208 210 211 211 211 211 212 212 211 210 210 209 208 207 206
168 226 226 223 237 243 252 257 224 192 223 235 215 212 204 197 197 205 217 224 225 226 237 250 249 244 249 249 231 220 220 222 231 234 232 246 256 254 248 246 249 248 244 240 240 238 231 235 241 231 225 224 220 220 217 215 216 217 216 214 211 210 209 206 205 204 203 205 206 206 205 206 208 210 210 211 211 212 212 210 210 210 209 209 209 208
181 226 221 203 230 246 249 253 239 199 206 235 233 218 215 214 211 214 219 222 227 231 236 244 253 257 255 241 211 215 216 220 236 242 241 242 244 250 255 253 245 240 244 246 244 243 237 237 241 234 226 226 223 220 217 215 216 216 215 213 210 209 208 205 205 204 204 206 206 204 204 204 205 207 209 210 211 211 211 211 211 210 210 209 208 208
166 226 219 167 218 242 241 245 243 220 209 244 249 233 223 221 219 219 220 220 220 223 233 240 248 256 253 199 182 218 204 204 224 224 229 239 238 243 249 246 239 236 243 248 249 248 244 242 239 230 229 229 224 219 217 216 214 213 213 212 210 208 206 205 205 204 205 205 204 203 204 203 202 203 206 208 209 210 210 210 209 209 208 208 208 208
167 184 207 192 212 243 244 241 234 217 224 243 241 236 231 226 223 225 230 230 224 216 223 228 233 246 246 182 205 235 208 205 223 214 216 232 233 236 240 237 234 235 240 246 249 246 244 242 237 233 234 232 225 222 223 218 214 214 214 211 208 205 204 203 204 204 204 203 202 202 202 202 201 201 203 206 208 208 208 207 206 207 208 208 208 209
185 193 210 204 204 245 249 233 162 191 226 233 231 234 235 230 222 223 230 231 225 215 222 232 239 248 248 219 224 238 222 217 225 215 215 226 230 233 234 228 230 236 242 247 246 243 243 244 244 244 244 242 236 232 230 223 218 218 214 208 204 202 201 201 201 202 202 201 201 202 202 202 201 201 203 205 205 204 204 204 205 206 208 209 209 209
193 205 210 202 215 240 235 159 177 216 226 240 251 239 231 226 220 223 232 235 228 217 224 237 245 247 245 236 232 237 234 231 231 227 228 231 223 218 224 228 228 230 236 242 242 242 242 245 252 255 253 250 242 231 223 216 213 211 205 200 198 197 197 197 197 199 200 199 200 201 201 200 200 200 201 201 200 200 201 202 203 204 207 209 210 210
189 203 206 198 214 226 199 192 221 239 258 291 285 263 223 223 217 219 238 244 233 219 218 229 238 243 245 244 242 244 246 256 263 246 228 225 219 207 215 227 222 217 223 228 231 238 243 247 252 255 254 246 228 213 207 203 199 193 189 190 191 191 193 194 194 195 197 197 198 200 200 200 199 198 199 198 199 199 200 201 202 204 206 207 209 211
193 194 200 210 205 205 223 227 238 274 295 273 259 243 191 186 190 191 225 245 234 217 215 224 234 240 244 246 248 252 264 298 285 260 200 200 220 214 217 226 217 212 221 225 230 240 250 253 251 248 238 214 197 194 191 187 184 180 176 178 182 186 189 190 193 194 196 197 198 199 200 199 198 197 197 197 198 199 200 202 204 206 207 207 207 210
202 195 192 208 202 196 225 237 239 251 251 244 248 239 170 170 186 179 202 246 242 220 213 220 231 238 242 245 246 244 207 272 272 258 181 196 219 211 217 234 227 214 220 226 233 239 244 241 223 203 192 178 172 179 179 175 174 170 167 171 177 182 185 188 192 194 195 197 198 198 198 198 197 196 196 197 198 199 199 201 203 206 207 208 209 211
211 209 204 214 212 200 217 231 229 231 234 241 252 249 170 166 159 139 184 248 250 227 205 207 223 232 237 240 237 210 162 236 260 255 189 193 206 186 201 219 212 203 204 208 217 209 193 182 164 157 161 157 156 165 168 167 167 164 163 169 175 179 183 188 192 195 196 198 198 198 198 198 198 198 198 199 199 199 199 200 202 205 207 210 213 216
209 213 215 220 223 218 224 232 232 236 243 241 251 251 184 155 128 128 208 246 247 212 173 181 207 225 232 232 222 186 189 226 252 255 178 160 156 166 195 192 178 178 165 158 168 162 154 149 142 140 145 147 150 157 161 162 162 161 163 168 172 178 185 191 195 196 197 197 197 197 198 199 199 200 200 200 200 200 201 201 203 205 209 212 216 219
203 206 210 217 224 224 226 234 241 244 241 232 211 172 158 134 128 174 223 239 205 167 169 176 194 218 228 219 191 193 214 224 235 167 131 133 142 173 177 136 139 143 136 137 140 138 135 135 134 135 138 144 149 153 158 160 158 157 161 165 173 183 190 194 194 194 194 194 194 195 197 198 199 200 201 202 201 200 200 203 206 208 210 212 213 214
193 199 205 211 221 224 227 235 244 250 234 188 145 141 148 148 179 211 228 244 185 181 188 190 199 214 218 195 186 208 216 176 126 136 149 162 166 155 142 132 124 115 120 128 132 133 129 124 123 126 132 142 149 152 157 159 154 154 160 168 177 186 189 188 189 189 189 189 190 192 194 195 197 198 199 199 198 197 198 201 206 208 208 207 207 208
184 187 199 199 205 218 227 226 230 249 227 142 121 106 199 207 206 201 198 221 212 192 189 203 216 216 194 185 206 211 175 141 164 169 163 176 162 137 151 163 147 136 133 130 131 136 131 121 119 124 130 141 149 153 159 159 154 155 164 170 177 180 180 181 182 183 184 186 187 189 191 192 194 195 195 196 196 196 197 197 199 201 202 202 203 204
193 187 194 193 190 200 217 222 214 207 191 171 156 169 213 212 188 154 174 193 214 208 189 196 216 213 195 199 204 189 164 168 182 168 156 167 161 146 158 162 149 144 138 131 134 137 131 123 119 122 128 140 149 154 162 162 156 156 163 166 169 171 172 174 176 177 180 182 183 186 188 189 191 192 194 194 194 193 192 191 192 194 197 201 204 208
204 196 196 200 201 204 215 225 216 191 195 210 206 197 210 214 186 148 174 201 222 212 186 195 216 203 194 192 173 171 188 181 165 169 170 164 162 158 155 153 147 141 132 127 130 132 128 123 122 121 123 133 145 153 162 165 159 156 157 159 162 165 166 167 170 172 174 177 180 182 183 184 187 189 191 190 190 189 188 189 192 195 200 206 211 215
222 206 201 196 202 221 230 217 207 215 225 232 233 219 206 223 208 166 173 203 211 185 175 215 248 207 184 180 166 178 201 177 159 172 171 154 157 159 147 139 134 132 128 125 126 127 125 122 121 120 119 124 138 149 157 161 158 153 151 154 159 161 161 163 166 167 169 173 176 177 178 178 179 182 185 186 189 192 194 197 199 201 205 210 213 219
315 312 229 214 203 214 220 204 205 215 213 211 223 231 237 246 242 189 184 217 220 194 197 216 228 186 183 192 184 180 183 169 160 168 166 156 160 160 152 147 138 132 132 133 133 133 129 125 122 122 119 121 132 143 149 152 152 148 148 152 155 157 160 162 163 164 166 169 172 173 175 176 176 179 183 186 191 196 201 205 208 208 210 213 215 220
341 358 332 287 254 231 228 229 225 245 289 248 230 230 236 244 241 221 237 280 319 302 242 206 171 163 179 198 192 169 164 169 167 164 163 163 162 160 156 153 143 135 135 139 141 138 134 130 128 126 122 121 129 139 143 144 145 146 149 152 156 159 160 161 162 163 164 167 169 171 174 177 179 180 183 187 191 196 199 204 208 211 214 217 220 223
111 311 264 278 280 278 275 268 263 321 307 275 255 249 251 255 246 226 227 256 276 237 214 181 173 185 189 194 183 159 160 174 174 162 159 160 159 159 156 148 144 141 141 145 147 143 138 135 131 127 124 124 131 137 138 138 141 146 149 151 157 162 161 159 160 161 161 164 167 169 172 175 177 178 181 182 186 191 196 202 209 214 219 223 227 232
159 227 213 208 267 267 256 249 238 232 257 255 241 242 244 242 239 231 215 208 217 210 191 177 172 186 193 193 183 168 166 170 166 156 156 158 158 158 155 147 143 142 143 144 143 139 136 134 132 128 124 126 132 135 135 136 139 144 148 150 156 162 160 156 156 156 158 162 164 165 167 169 171 173 177 178 180 184 186 191 200 209 216 221 227 232
192 219 203 196 235 246 243 233 211 206 247 251 231 230 225 197 194 219 220 213 211 200 186 180 171 170 192 206 198 180 167 160 158 154 149 148 152 152 152 153 150 147 148 146 141 136 133 132 130 128 126 128 133 133 134 136 139 144 148 150 155 162 160 155 154 154 156 160 162 163 165 165 166 169 172 174 178 179 178 177 182 191 203 210 216 223